EW1991 Weather Reports


time (UTC)temp
C
wind
direction
speed
KPH
gust
KPH
rain 1hr
cm
rain 24hr
cm
rain mn
cm
humidity
%
barometer
mb
20260506191551 7 153 9.7 22.5 0.13 3.00 2.54 94 1005.9
20260506190048 7 162 11.3 20.9 0.20 3.00 2.54 94 1005.9
20260506184547 7 167 6.4 20.9 0.25 2.97 2.51 94 1005.9
20260506183046 6 167 12.9 24.1 0.25 2.90 2.46 94 1006.0
20260506181558 7 181 9.7 20.9 0.30 2.84 2.41 95 1005.9
20260506180040 7 170 6.4 19.3 0.33 2.79 2.34 95 1005.7
20260506174536 8 97 3.2 6.4 0.38 2.72 2.26 96 1005.7
20260506173043 8 201 4.8 9.7 0.41 2.67 2.21 96 1006.0
20260506171535 8 55 1.6 9.7 0.33 2.57 2.11 96 1005.9
20260506170030 8 263 1.6 4.8 0.28 2.46 2.01 96 1005.9
20260506164530 8 120 0.0 1.6 0.23 2.34 1.88 96 1006.0
20260506163030 7 121 0.0 3.2 0.28 2.26 1.80 96 1006.1
20260506161530 7 101 0.0 3.2 0.38 2.24 1.78 96 1005.9
20260506160036 7 161 0.0 4.8 0.43 2.18 1.73 95 1006.2
20260506154525 7 139 0.0 6.4 0.43 2.11 1.65 95 1006.4
20260506153021 8 117 1.6 4.8 0.41 1.98 1.52 95 1006.7
20260506151521 8 101 0.0 1.6 0.41 1.85 1.40 95 1006.8
20260506150019 8 69 0.0 3.2 0.41 1.75 1.30 95 1006.8
20260506144518 8 109 0.0 0.0 0.38 1.68 1.22 96 1007.1
20260506143017 8 110 0.0 1.6 0.33 1.57 1.12 95 1007.4
20260506141516 8 110 0.0 1.6 0.25 1.42 0.99 95 1007.3
20260506140014 8 110 1.6 6.4 0.20 1.35 0.89 95 1007.1
20260506134510 9 109 0.0 3.2 0.20 1.30 0.84 95 1007.1
20260506133011 9 110 1.6 4.8 0.25 1.24 0.79 96 1006.8
20260506131532 10 84 0.0 1.6 0.28 1.19 0.71 96 1007.0
20260506130007 10 120 0.0 6.4 0.25 1.14 0.69 96 1006.9
20260506124504 10 319 0.0 3.2 0.23 1.09 0.64 96 1007.0
20260506123004 10 335 0.0 3.2 0.15 0.99 0.53 96 1007.4
20260506121502 10 56 0.0 3.2 0.08 0.91 0.46 96 1007.4
20260506120100 10 102 0.0 3.2 0.05 0.89 0.43 96 1007.2
20260506114600 10 141 0.0 1.6 0.03 0.86 0.41 97 1007.2
20260506113059 10 141 0.0 1.6 0.03 0.84 0.38 97 1007.0
20260506111559 10 141 0.0 3.2 0.03 0.84 0.38 97 1006.8
20260506110104 10 141 0.0 3.2 0.03 0.84 0.38 97 1007.1
20260506104558 10 141 0.0 3.2 0.03 0.84 0.38 97 1007.2
20260506103056 10 208 0.0 0.0 0.03 0.81 0.36 97 1007.0
20260506101555 10 207 0.0 0.0 0.03 0.81 0.36 97 1006.8
20260506100054 10 208 0.0 0.0 0.05 0.81 0.36 97 1006.5
20260506094619 10 207 0.0 3.2 0.05 0.81 0.36 96 1006.5
20260506093051 10 164 0.0 4.8 0.03 0.79 0.33 96 1006.6
20260506091550 11 98 0.0 1.6 0.03 0.79 0.33 97 1006.8
20260506090048 10 99 0.0 3.2 0.00 0.76 0.30 96 1006.9
20260506084547 10 139 0.0 1.6 0.00 0.76 0.30 96 1006.9
20260506083047 10 139 0.0 1.6 0.00 0.76 0.30 96 1007.2
20260506081544 11 139 0.0 1.6 0.00 0.76 0.30 96 1007.0
20260506073040 11 56 0.0 0.0 0.00 0.76 0.30 95 1007.6
20260506071539 11 56 0.0 1.6 0.00 0.76 0.30 95 1007.6
20260506061534 11 57 0.0 1.6 0.00 0.76 0.30 95 1007.5
20260506044522 12 126 0.0 3.2 0.30 0.76 0.30 91 1008.0
20260506043019 12 233 0.0 9.7 0.23 0.69 0.23 88 1008.1
20260506041517 13 188 3.2 6.4 0.03 0.48 0.03 85 1008.0
20260506040011 13 153 3.2 6.4 0.00 0.46 0.00 82 1007.5
20260506034511 14 153 3.2 8.0 0.00 0.46 0.46 84 1007.5
20260506033009 14 211 3.2 16.1 0.00 0.46 0.46 84 1007.5
20260506031508 14 125 3.2 4.8 0.00 0.46 0.46 87 1007.3
20260506030016 14 128 0.0 4.8 0.00 0.46 0.46 86 1006.9
20260506024516 15 75 0.0 3.2 0.00 0.46 0.46 84 1007.1
20260506023003 15 74 0.0 1.6 0.00 0.46 0.46 82 1006.9
20260506021502 16 78 1.6 9.7 0.00 0.46 0.46 82 1006.5
20260506020100 16 332 0.0 3.2 0.00 0.46 0.46 80 1006.3
20260506014558 16 100 1.6 12.9 0.00 0.46 0.46 80 1006.3
20260506013058 15 112 3.2 6.4 0.00 0.46 0.46 83 1006.3
20260506011558 15 322 3.2 6.4 0.00 0.46 0.46 82 1006.0
20260506010056 16 154 1.6 4.8 0.00 0.46 0.46 80 1005.9
20260506004556 16 115 0.0 6.4 0.00 0.46 0.46 79 1005.5
20260506003057 16 333 1.6 6.4 0.00 0.46 0.46 74 1005.1
20260506001607 17 129 1.6 12.9 0.00 0.46 0.46 71 1005.1
20260506000054 17 331 4.8 8.0 0.00 0.46 0.46 74 1005.2
20260505234555 17 235 3.2 8.0 0.00 0.46 0.46 73 1005.2
20260505233052 16 343 3.2 9.7 0.00 0.46 0.46 77 1005.0
20260505231601 17 314 1.6 4.8 0.00 0.46 0.46 73 1004.9
20260505230057 17 344 4.8 8.0 0.00 0.46 0.46 76 1004.9
20260505224552 17 269 3.2 6.4 0.00 0.46 0.46 71 1004.8
20260505223050 18 278 0.0 4.8 0.03 0.46 0.46 73 1005.2
20260505221550 17 301 1.6 6.4 0.03 0.46 0.46 70 1004.7
20260505220048 16 328 3.2 9.7 0.03 0.46 0.46 78 1004.4
20260505214548 17 321 4.8 8.0 0.03 0.46 0.46 75 1004.6
20260505213055 17 262 6.4 16.1 0.00 0.43 0.43 74 1005.1
20260505211550 17 217 1.6 24.1 0.00 0.43 0.43 77 1005.0
20260505210046 17 136 9.7 27.4 0.00 0.43 0.43 77 1004.7
20260505204544 16 170 0.0 3.2 0.03 0.43 0.43 89 1004.2
20260505203045 15 298 0.0 3.2 0.10 0.43 0.43 89 1003.2
20260505201546 16 284 0.0 9.7 0.15 0.43 0.43 83 1003.2
20260505200044 16 251 3.2 14.5 0.43 0.43 0.43 79 1003.4
20260505194542 16 326 1.6 11.3 0.41 0.41 0.41 83 1005.3
20260505193040 16 51 4.8 14.5 0.33 0.33 0.33 81 1004.2